Hors Challenge

Course Nature - Bléharies (13.40 km)

dimanche 01 mars 2020

Vous pouvez trouver Le classement original sur : http://ultratiming.be
 
COURSE NATURE - BLÉHARIES
DISTANCE 13.42 km
dimanche 01 mars 2020
 
Place dos NOM Equipe Catégorie Pl/cat temps temps/km Vitesse
01:00:00                
1 854 COLMANT MIDOL SEBASTIEN ACBB V1H 1 0:52:17 03:54 15.40
2 878 BILLET GREGORY POPUELLES V1H 2 0:54:55 04:06 14.66
3 892 GRIMONPREZ JULIEN TRIGT SEH 1 0:57:09 04:16 14.09
4 887 CLINQUART GILLES COACH RUNNING SEH 2 0:58:20 04:21 13.80
5 901 WILLEMS HENRI - SEH 3 0:58:46 04:23 13.70
6 891 HAENECOUR PIERRE TRIGT SEH 4 1:00:54 04:32 13.22
7 909 VAN NESTE MICHEL TEAM RUNNING 46 SEH 5 1:01:19 04:34 13.13
8 926 ROBETTE DAMIEN LES LEUZOIS & C SEH 6 1:02:33 04:40 12.87
9 915 VERCRUYSSE THIBAUT TRIGT SEH 7 1:03:27 04:44 12.69
10 876 LEGAST FRANCOIS COACH RUNNING V1H 3 1:04:13 04:47 12.54
11 928 DOGOT MAXIME PONEY CLUB SEH 8 1:04:27 04:48 12.49
12 823 VAN CAUTEREN JAN GENT RUNNING TE SEH 9 1:04:28 04:48 12.49
13 872 BONNIER MATHIEU PIPAIX V1H 4 1:06:06 04:56 12.18
14 902 WILLEMS PIERRE - SEH 10 1:07:21 05:01 11.95
15 855 CAMBERLIN LAURENT POPUELLES V1H 5 1:07:43 05:03 11.89
16 877 DUPUIS ARNAUD - SEH 11 1:08:13 05:05 11.80
17 845 VINCHENT MIGUEL AS VELAINES V1H 6 1:08:37 05:07 11.73
18 895 CUVELIER GILLES TORTUES MESLINO SEH 12 1:08:38 05:07 11.73
19 906 DE LEERSNYDER GUNTER - V1H 7 1:08:53 05:08 11.69
20 822 STEVENS STEPHAN TORTUES MESLINO V2H 1 1:09:28 05:11 11.59
21 860 CLÉMENT GEORGES PIPAIX SEH 13 1:09:28 05:11 11.59
22 837 JANSSEN SANDY - SEF 1 1:09:31 05:11 11.58
23 826 DEMARET CHRISTOPHE - V1H 8 1:09:32 05:11 11.58
24 816 GUIDEZ BAPTISTE TORTUES MESLINO SEH 14 1:10:24 05:15 11.44
25 935 BEVERNAEGIE CHRIS ÉCLATÉS PERUWEL V1H 9 1:10:31 05:15 11.42
26 851 DEPLECHIN THOMAS - SEH 15 1:10:46 05:16 11.38
27 946 DEWEZ MARTIN - SEH 16 1:10:57 05:17 11.35
28 903 MORTAIGNIE AUBIN - SEH 17 1:11:07 05:18 11.32
29 929 QUARRE MICHAEL SANS V1H 10 1:11:10 05:18 11.31
30 848 BROUX GRÉGORY CHWAPI V1H 11 1:11:47 05:21 11.22
31 934 DELBROECK QUENTIN CRAZY SEH 18 1:11:47 05:21 11.22
32 670 MULNARD DAMIEN - SEH 19 1:11:59 05:22 11.19
33 866 SANY RUDY COACH RUNNING V2H 2 1:12:16 05:23 11.14
34 852 BARDYN NICOLAS BAC V1H 12 1:12:23 05:24 11.12
35 808 DELEM BENOÎT TORTUES MESLINO SEH 20 1:12:33 05:24 11.10
36 885 DECOCK MICHEL RCE V3H 1 1:13:00 05:26 11.03
37 846 PAREZ JÉRÉMY RC ESTAIMPUIS SEH 21 1:13:13 05:27 11.00
38 812 DEWINTER JONATHAN COACH RUNNING SEH 22 1:13:39 05:29 10.93
39 882 SIMONART CHRISTOPHE 497846881 SEH 23 1:14:16 05:32 10.84
40 921 SEMET JULIEN POTES O MALTES SEH 24 1:14:36 05:34 10.79
41 875 CLERX VINCENT PIPAIX V2H 3 1:15:46 05:39 10.63
42 922 VAN DURMEN PHILIPPE BCH V2H 4 1:15:49 05:39 10.62
43 821 STEVENS EMERIC TORTUES MESLINO ESPH 1 1:16:10 05:41 10.57
44 809 DELEM PASCALE TORTUES MESLINO V2F 1 1:16:35 05:42 10.51
45 908 BOIS PIERRE-HENRI JCBLANDAIN V1H 13 1:16:42 05:43 10.50
46 838 BOURGHELLE FABRICE COACH RUNNING V2H 5 1:17:15 05:45 10.42
47 807 COCRIAMONT BENJAMIN - SEH 25 1:17:48 05:48 10.35
48 819 RYCKAERT ALAIN TORTUES MESLINO V2H 6 1:18:04 05:49 10.31
49 941 DECRUYENAERE FRÉDÉRIC FARMERS CLUB V1H 14 1:18:09 05:49 10.30
50 871 FICHÈRE SYLVAIN FARMERS V2H 7 1:18:09 05:49 10.30
51 959 CHRISTIAENS XAVIER TOURNAI GENERAL V2H 8 1:18:15 05:50 10.29
52 869 MINET JEROME - SEH 26 1:18:22 05:50 10.27
53 911 BONDROIT FRESERIC - V1H 15 1:18:24 05:51 10.27
54 904 COLLAGE JULIE RONDE DES SORCI V1F 1 1:18:32 05:51 10.25
55 905 BOUTRY VINCENT RONDE DES SORCI V1H 16 1:18:32 05:51 10.25
56 890 DELNESTE BRANDON - SEH 27 1:18:34 05:51 10.25
57 870 PREVOST MARIE CÉCILE TEMPLEUVE V1F 2 1:18:34 05:51 10.25
58 889 LECLERCQ MAXIME - SEH 28 1:18:37 05:52 10.24
59 873 OPSOMER BRUNO LES POTES O MAL V1H 17 1:19:01 05:53 10.19
60 863 VERDY JACQUES L'AIN BRUYÈRE V3H 2 1:19:24 05:55 10.14
61 953 VAUCANT ADRIEN FARMERS SEH 29 1:19:24 05:55 10.14
62 840 THOREZ JOHAN - SEH 30 1:19:25 05:55 10.14
63 894 DE WERGIFOSSE ALICE - SEF 2 1:19:29 05:55 10.13
64 899 VAN NESTE CAROLINE B BÊTES DE COUR SEF 3 1:19:33 05:56 10.12
65 960 BORIGHEM DIDIER MC RUNNING V2H 9 1:19:50 05:57 10.09
66 856 BUSIERE RÉGINE - V2F 2 1:20:02 05:58 10.06
67 839 DUHEM GERARD BAC V2H 10 1:20:52 06:02 9.96
68 874 OPSOMER ALAIN POTE O MALTE V1H 18 1:20:54 06:02 9.95
69 841 LECAT DANIEL ACCROS 5 CLOCHE V2H 11 1:21:03 06:02 9.93
70 883 ROCHEZ SÉBASTIEN ACCROS DES 5 CL V1H 19 1:21:03 06:02 9.93
71 955 MARQUANT NICOLAS - SEH 31 1:21:16 06:03 9.91
72 886 BRUNEAU CHANTAL PIPAIX V3F 1 1:21:35 06:05 9.87
73 937 POTAR SYLVIA SUK C EST FOU V2F 3 1:21:36 06:05 9.87
74 940 COUSIN OLIVIER SUK C'EST FOU V1H 20 1:21:42 06:05 9.86
75 847 MAHIEU EDDY PIPAIX V2H 12 1:21:47 06:06 9.85
76 956 MAT PIERRE TG V2H 13 1:21:51 06:06 9.84
77 820 SCHMITZ MATHIEU - SEH 32 1:21:52 06:06 9.84
78 919 MAT BENOIT - V2H 14 1:22:03 06:07 9.81
79 920 COURIER GILLES - V2H 15 1:22:03 06:07 9.81
80 861 DAME JEAN-MARIE TORTUES MESLINO V3H 3 1:22:16 06:08 9.79
81 803 BLONDELLE SOPHIE TORTUES MASLINO V2F 4 1:22:16 06:08 9.79
82 938 DELCROIX LUC FARMERSCMUB V2H 16 1:22:46 06:10 9.73
83 802 BECART AMANDINE - SEF 4 1:22:46 06:10 9.73
84 939 DELMARRE PIERRE FARMERSCMUB V2H 17 1:22:49 06:10 9.72
85 829 MAES THOMAS SPORT ÉVASION JUH 1 1:22:54 06:11 9.71
86 828 MAES ERIC SPORT ÉVASION V1H 21 1:22:55 06:11 9.71
87 918 PARENT JF HOUSE SEH 33 1:22:55 06:11 9.71
88 830 QUINTIN PIERRE VELAINES V2H 18 1:22:56 06:11 9.71
89 912 SARRAUT ERIC - V1H 22 1:23:11 06:12 9.68
90 831 MICHAUX DIDIER JTB BESONRIEUX V2H 19 1:23:21 06:13 9.66
91 923 DEPAOLI SOPHIE - SEF 5 1:23:33 06:14 9.64
92 888 DERVAUX JEAN. MICHEL PIPAIX V2H 20 1:23:39 06:14 9.63
93 879 DEVAUX PHILIPPE - V1H 23 1:24:05 06:16 9.58
94 910 DEZOOMER SIMON - SEH 34 1:24:23 06:17 9.54
95 930 DE LOVINFOSSE NOÉMIE - SEF 6 1:25:59 06:24 9.36
96 688 GOEMAERE BART SUKCESTFOU V1H 24 1:26:01 06:25 9.36
97 950 MASSCHELEIN PATRICIA RCE V1F 3 1:26:15 06:26 9.34
98 914 VAN HEE OLIVIER RENAISSANCE.BE V2H 21 1:26:19 06:26 9.33
99 962 WERREBROUCK BLAISE - V2H 22 1:26:30 06:27 9.31
100 951 FUMIERE MAXENCE - SEH 35 1:26:37 06:27 9.30
101 952 DESCHUYTENEER GENEVIEVZ - SEF 7 1:26:38 06:27 9.29
102 943 VAN WYNSBERGHE ANTOINE - SEH 36 1:26:58 06:29 9.26
103 857 BUSIERE THIERRY - V2H 23 1:27:26 06:31 9.21
104 961 BOURGI PATRICK BBÈTES DE COURS V2H 24 1:27:48 06:33 9.17
105 957 CORNILLIE HERVÉ NÉANT V1H 25 1:27:56 06:33 9.16
106 958 LIEVIN DAVID - SEH 37 1:27:56 06:33 9.16
107 945 HENNEUSE FRANCOIS - SEH 38 1:28:26 06:35 9.10
108 850 FUNDUK STÉPHANIE - V1F 4 1:28:39 06:36 9.08
109 884 BOHEMS ANDRE ACCROS 5 CLOCHE V2H 25 1:29:10 06:39 9.03
110 858 CAZIER ANNE - V2F 5 1:30:29 06:45 8.90
111 944 LIEFOOGHE MAXIME - SEH 39 1:30:30 06:45 8.90
112 947 VION STEVE - SEH 40 1:31:13 06:48 8.83
113 948 MATHY TIFANY - SEF 8 1:31:13 06:48 8.83
114 865 CARTON NICOLAS J.C HERINNES V1H 26 1:31:14 06:48 8.83
115 862 JANSSENS ROLAND TORTUES MESLINO V3H 4 1:31:26 06:49 8.81
116 924 MICHEL JACQUES - V3H 5 1:31:40 06:50 8.78
117 954 SCOLAS BENEDICTE - SEF 9 1:31:45 06:50 8.78
118 835 DESMET YVES JCSA V3H 6 1:31:50 06:51 8.77
119 917 LIEFOOGHE EDDY - SEH 41 1:32:13 06:52 8.73
120 832 DEZEQUE SOMINIQUE JCSA V2H 26 1:32:34 06:54 8.70
121 801 ACKERMANS INGRID CAP FORME V1F 5 1:33:06 06:56 8.65
122 806 CARLIER TANIA ÉCLATÉS DE PÉRU V1F 6 1:33:06 06:56 8.65
123 815 GAHIDE DELPHINE CAP FORME V1F 7 1:33:13 06:57 8.64
124 813 FOSTROY GUILLAUME - V1H 27 1:33:20 06:57 8.63
125 833 MUSUMECI BRUNO - V3H 7 1:33:36 06:58 8.60
126 907 MANCHE COLINE TEMPLEUVE JUF 1 1:33:45 06:59 8.59
127 805 CARLIER BRUNO AS VELAINES V3H 8 1:33:45 06:59 8.59
128 864 ZENNEE ERIC RUNNING CLUB TE V1H 28 1:33:46 06:59 8.59
129 916 MALGHEM CHRISTOPHE TG V1H 29 1:33:58 07:00 8.57
130 925 DUVIVIER CAROLINE - V1F 8 1:34:35 07:03 8.51
131 900 GEURTS OLIVIER JC HERINNES V1H 30 1:35:15 07:06 8.45
132 949 WATTECAMPS FREDERICQ JOGGING CLUB HE V2H 27 1:35:15 07:06 8.45
133 881 SCORNICIEL MARYLENE AS VELAINES V2F 6 1:39:24 07:24 8.10
134 868 MONNIEZ FABRICE VELAINESO050866 V2H 28 1:39:25 07:25 8.10
135 849 DEGALLAIX RÉGINALD - V1H 31 1:39:25 07:25 8.10
136 817 HENNEQUART LIEVE LES TORTUES MES V1F 9 1:39:25 07:25 8.10
137 932 LÉERSNYDER JOEL VELAINES V4H 1 1:39:34 07:25 8.09
138 927 DOGOT BERNARD ADJ V3H 9 1:39:38 07:25 8.08
139 834 DELVIN RÉGINE TORTUES MESLINO V2F 7 1:39:43 07:26 8.07
140 859 CAZIER PHILIPPE - V2H 29 1:40:08 07:28 8.04
141 836 CUVELIER LUC TORTUES MESLINO V3H 10 1:40:23 07:29 8.02
142 893 QUINTILI LAURENT RUNNING SAFE V1H 32 1:42:11 07:37 7.88
143 825 WITS JULIE LES ECLATÉS PÉR V1F 10 1:42:12 07:37 7.88
144 931 DALLEMAGNE MICHEL RUN FOR FUN V3H 11 1:42:38 07:39 7.85
145 843 NAHORNIAK SANDRA ÉCLATÉS PERUWEL V1F 11 1:43:44 07:44 7.76
146 844 MIROIR CATHERINE LES ÉCLATÉS V2F 8 1:43:45 07:44 7.76
147 818 LECLERCQ BETTY RUN FOR FUN V1F 12 1:43:53 07:44 7.75
148 824 VAN HOUTTE NICOLAS RUN FOR FUN V1H 33 1:43:54 07:45 7.75
149 827 DE NEVE CHANTAL SAINT SAUVEUR V2F 9 1:44:18 07:46 7.72
150 867 ALLARD STÉPHANE RUNAISSANCE.BE V3H 12 1:45:19 07:51 7.65
151 842 GRAINDORGE CATHERINE LES ÉCLATÉS PER V2F 10 1:45:40 07:52 7.62
152 896 FRÉDÉRIC ANAELLE NAC SEF 10 1:48:42 08:06 7.41
153 898 FRÉDÉRIC TIPHENE BAC SEF 11 1:48:42 08:06 7.41
154 897 D HAEYE FRÉDÉRIQUE RUNNINGSAFE V1F 13 1:48:42 08:06 7.41
                 
Nos dernières videos